Nashville, TN

2:36 AM CST on February 06, 2016 (GMT -0600)
Nashville International

Weather History for KBNA - August, 2013

Change the Weather History Date:

Thursday, August 29, 2013

  Actual Average Record
Temperature  
Mean Temperature 85 °F 77 °F  
Max Temperature 95 °F 88 °F 100 °F (1897)
Min Temperature 74 °F 67 °F 49 °F (1986)
Degree Days  
Heating Degree Days 0    
Month to date heating degree days 0  
Since 1 June heating degree days 0  
Since 1 July heating degree days 0  
Cooling Degree Days 20    
Month to date cooling degree days 368  
Year to date cooling degree days 1351  
Since 1 June cooling degree days 1144  
Growing Degree Days 34 (Base 50)    
Moisture  
Dew Point 70 °F    
Average Humidity 67    
Maximum Humidity 87    
Minimum Humidity 46    
Precipitation  
Precipitation 0.00 in 0.10 in 2.47 in (1919)
Month to date precipitation 1.94 2.98  
Year to date precipitation 37.46 32.06  
Snow  
Snow 0.00 in 0.00 in 0.00 in (2002)
Month to date snowfall 0.0 0.0  
Since 1 June snowfall 0.0 0.0  
Since 1 July snowfall 0.0 0.0  
Snow Depth 0.00 in    
Sea Level Pressure  
Sea Level Pressure 29.99 in    
Wind  
Wind Speed 5 mph (WNW)    
Max Wind Speed 13 mph    
Max Gust Speed 17 mph    
Visibility 10 miles    
Events      
T = Trace of Precipitation, MM = Missing Value Source: NWS Daily Summary

Daily Weather History Graph

Daily Weather History Graph

Search for Another Location

Airport or City:

Trip Planner

Search our weather history database for the weather conditions in past years. The results will help you decide how hot, cold, wet, or windy it might be!

Date:

Astronomy

Aug. 29, 2013 Rise Set
Actual Time 6:16 AM CDT 7:18 PM CDT
Civil Twilight 5:49 AM CDT 7:44 PM CDT
Nautical Twilight 5:18 AM CDT 8:15 PM CDT
Astronomical Twilight 4:46 AM CDT 8:48 PM CDT
Moon 12:12 AM CDT (8/29) 2:41 PM CDT (8/29)
Length of Visible Light 13h 54m
Length of Day
13h 02m
Last Quarter, 38% of the Moon is Illuminated
Aug 29
Last Quarter
Sep 5
New
Sep 12
First Quarter
Sep 19
Full
Sep 26
Last Quarter

Hourly Weather History & Observations

Time (CDT) Temp. Heat Index Dew Point Humidity Pressure Visibility Wind Dir Wind Speed Gust Speed Precip Events Conditions
12:53 AM 75.9 °F - 70.0 °F 82% 30.01 in 10.0 mi Calm Calm - N/A   Clear
1:53 AM 75.0 °F - 69.1 °F 82% 30.00 in 10.0 mi Calm Calm - N/A   Clear
2:53 AM 75.0 °F - 69.1 °F 82% 30.00 in 10.0 mi WNW 3.5 mph - N/A   Clear
3:53 AM 75.0 °F - 69.1 °F 82% 30.00 in 10.0 mi West 3.5 mph - N/A   Clear
4:53 AM 73.9 °F - 69.1 °F 85% 30.00 in 10.0 mi West 3.5 mph - N/A   Mostly Cloudy
5:53 AM 75.0 °F - 68.0 °F 79% 30.01 in 10.0 mi West 4.6 mph - N/A   Mostly Cloudy
6:53 AM 75.9 °F - 68.0 °F 76% 30.03 in 10.0 mi West 3.5 mph - N/A   Mostly Cloudy
7:53 AM 80.1 °F 82.7 °F 68.0 °F 67% 30.04 in 10.0 mi WNW 6.9 mph - N/A   Scattered Clouds
8:53 AM 82.9 °F 86.5 °F 69.1 °F 63% 30.04 in 10.0 mi WNW 9.2 mph - N/A   Mostly Cloudy
9:53 AM 84.9 °F 88.8 °F 69.1 °F 59% 30.03 in 10.0 mi WNW 8.1 mph - N/A   Scattered Clouds
10:53 AM 87.1 °F 92.0 °F 70.0 °F 57% 30.04 in 10.0 mi NW 5.8 mph - N/A   Mostly Cloudy
11:53 AM 90.0 °F 94.5 °F 69.1 °F 50% 30.02 in 10.0 mi North 4.6 mph - N/A   Mostly Cloudy
12:53 PM 91.0 °F 95.6 °F 69.1 °F 48% 30.01 in 10.0 mi North 6.9 mph - N/A   Mostly Cloudy
1:53 PM 91.9 °F 96.9 °F 69.1 °F 47% 29.99 in 10.0 mi WNW 3.5 mph - N/A   Mostly Cloudy
2:53 PM 93.9 °F 99.1 °F 69.1 °F 44% 29.97 in 10.0 mi North 6.9 mph - N/A   Mostly Cloudy
3:53 PM 91.9 °F 95.9 °F 68.0 °F 45% 29.96 in 10.0 mi NNW 8.1 mph - N/A   Mostly Cloudy
4:53 PM 93.9 °F 100.3 °F 70.0 °F 46% 29.95 in 10.0 mi Variable 6.9 mph - N/A   Mostly Cloudy
5:53 PM 91.9 °F 96.9 °F 69.1 °F 47% 29.94 in 10.0 mi NNW 8.1 mph - N/A   Mostly Cloudy
6:53 PM 90.0 °F 95.4 °F 70.0 °F 52% 29.96 in 10.0 mi West 3.5 mph - N/A   Mostly Cloudy
7:53 PM 87.1 °F 92.8 °F 71.1 °F 59% 29.95 in 10.0 mi West 4.6 mph - N/A   Mostly Cloudy
8:53 PM 86.0 °F 92.2 °F 72.0 °F 63% 29.97 in 10.0 mi Variable 5.8 mph - N/A   Mostly Cloudy
9:53 PM 84.9 °F 90.7 °F 72.0 °F 65% 29.97 in 10.0 mi NW 3.5 mph - N/A   Mostly Cloudy
10:53 PM 84.0 °F 90.2 °F 73.0 °F 69% 29.96 in 10.0 mi WNW 3.5 mph - N/A   Scattered Clouds
11:53 PM 82.0 °F 87.9 °F 73.9 °F 76% 29.96 in 10.0 mi Calm Calm - N/A   Mostly Cloudy